Location: Kerentrech
(47.7567°N, 3.3595°W)
Time: 07:48:54
(UTC+00:00)

Cosmos 2237 Rocket - Pass Details

Date: 17 February 2020
Orbit: 835 x 849 km, 71.0° (Epoch: 30 March)

Event Time Altitude Azimuth Distance (km) Brightness Sun altitude
Exits shadow 04:03:38 40° 22° (NNE) 1,217 3.2 -32.8°
Drops below altitude 10° 04:07:10 10° 27° (NNE) 2,458 5.1 -32.3°
Sets 04:09:37 0° 28° (NNE) 3,396 5.9 -31.9°
